Corvallis, OR

7:31 PM PDT on May 23, 2017 (GMT -0700)
Corvallis Municipal

Weather History for KCVO - July, 2013

Change the Weather History Date:

Saturday, July 13, 2013

  Actual Average Record
Temperature  
Mean Temperature 66 °F -  
Max Temperature 84 °F 80 °F 102 °F (1996)
Min Temperature 48 °F 52 °F 48 °F (2000)
Cooling Degree Days 1    
Growing Degree Days 16 (Base 50)    
Moisture  
Dew Point 42 °F    
Average Humidity 47    
Maximum Humidity 87    
Minimum Humidity 16    
Precipitation  
Precipitation 0.00 in - - ()
Sea Level Pressure  
Sea Level Pressure 30.10 in    
Wind  
Wind Speed 9 mph (NW)    
Max Wind Speed 18 mph    
Max Gust Speed 25 mph    
Visibility 10 miles    
Events      
Averages and records for this station are not official NWS values.
T = Trace of Precipitation, MM = Missing Value Source: NWS Daily Summary

Daily Weather History Graph

Daily Weather History Graph

Search for Another Location

Airport or City:

Trip Planner

Search our weather history database for the weather conditions in past years. The results will help you decide how hot, cold, wet, or windy it might be!

Date:

Astronomy

Jul. 13, 2013 Rise Set
Actual Time 5:41 AM PDT 8:56 PM PDT
Civil Twilight 5:05 AM PDT 9:31 PM PDT
Nautical Twilight 4:19 AM PDT 10:17 PM PDT
Astronomical Twilight 3:22 AM PDT 11:14 PM PDT
Moon 11:17 AM PDT (7/13) 11:23 PM PDT (7/13)
Length of Visible Light 16h 26m
Length of Day
15h 15m
Waxing Crescent, 26% of the Moon is Illuminated
Jul 13
Waxing Crescent
Jul 15
First Quarter
Jul 22
Full
Jul 29
Last Quarter
Aug 6
New

Hourly Weather History & Observations

Time (PDT) Temp. Dew Point Humidity Pressure Visibility Wind Dir Wind Speed Gust Speed Precip Events Conditions
12:15 AM 55.4 °F 46.4 °F 72% 30.11 in 10.0 mi West 10.4 mph - N/A   Clear
12:35 AM 55.4 °F 46.4 °F 72% 30.11 in 10.0 mi West 10.4 mph - N/A   Clear
12:55 AM 53.6 °F 46.4 °F 77% 30.11 in 10.0 mi West 10.4 mph - N/A   Clear
1:15 AM 53.6 °F 46.4 °F 77% 30.12 in 10.0 mi West 9.2 mph - N/A   Clear
1:35 AM 53.6 °F 46.4 °F 77% 30.12 in 10.0 mi West 9.2 mph - N/A   Clear
1:55 AM 53.6 °F 46.4 °F 77% 30.12 in 10.0 mi WNW 9.2 mph - N/A   Clear
2:15 AM 53.6 °F 46.4 °F 77% 30.12 in 10.0 mi West 8.1 mph - N/A   Clear
2:35 AM 51.8 °F 46.4 °F 82% 30.12 in 10.0 mi West 4.6 mph - N/A   Clear
2:55 AM 51.8 °F 44.6 °F 76% 30.12 in 10.0 mi West 4.6 mph - N/A   Clear
3:15 AM 51.8 °F 44.6 °F 76% 30.12 in 10.0 mi West 4.6 mph - N/A   Clear
3:35 AM 51.8 °F 44.6 °F 76% 30.13 in 10.0 mi West 5.8 mph - N/A   Clear
3:55 AM 50.0 °F 44.6 °F 82% 30.13 in 10.0 mi WNW 5.8 mph - N/A   Clear
4:15 AM 50.0 °F 44.6 °F 82% 30.13 in 10.0 mi WNW 4.6 mph - N/A   Clear
4:35 AM 51.8 °F 44.6 °F 76% 30.13 in 10.0 mi WNW 4.6 mph - N/A   Clear
4:55 AM 53.6 °F 44.6 °F 72% 30.13 in 10.0 mi NW 4.6 mph - N/A   Clear
5:15 AM 51.8 °F 44.6 °F 76% 30.14 in 10.0 mi West 3.5 mph - N/A   Clear
5:35 AM 48.2 °F 42.8 °F 82% 30.15 in 10.0 mi West 3.5 mph - N/A   Clear
5:55 AM 48.2 °F 42.8 °F 82% 30.15 in 10.0 mi Calm Calm - N/A   Clear
6:15 AM 48.2 °F 42.8 °F 82% 30.15 in 10.0 mi WNW 3.5 mph - N/A   Clear
6:35 AM 48.2 °F 44.6 °F 87% 30.15 in 10.0 mi WNW 3.5 mph - N/A   Clear
6:55 AM 51.8 °F 44.6 °F 76% 30.15 in 10.0 mi West 3.5 mph - N/A   Clear
7:15 AM 53.6 °F 44.6 °F 72% 30.16 in 10.0 mi West 4.6 mph - N/A   Clear
7:35 AM 55.4 °F 46.4 °F 72% 30.16 in 10.0 mi Calm Calm - N/A   Clear
7:55 AM 60.8 °F 44.6 °F 55% 30.16 in 10.0 mi NNW 11.5 mph - N/A   Clear
8:15 AM 60.8 °F 42.8 °F 52% 30.17 in 10.0 mi North 9.2 mph - N/A   Clear
8:35 AM 62.6 °F 42.8 °F 48% 30.16 in 10.0 mi North 11.5 mph - N/A   Clear
8:55 AM 62.6 °F 42.8 °F 48% 30.16 in 10.0 mi North 12.7 mph - N/A   Clear
9:15 AM 64.4 °F 42.8 °F 45% 30.16 in 10.0 mi North 11.5 mph - N/A   Clear
9:35 AM 66.2 °F 42.8 °F 43% 30.15 in 10.0 mi North 11.5 mph - N/A   Clear
9:55 AM 66.2 °F 42.8 °F 43% 30.15 in 10.0 mi NNW 10.4 mph - N/A   Clear
10:15 AM 68.0 °F 42.8 °F 40% 30.14 in 10.0 mi NW 11.5 mph - N/A   Clear
10:35 AM 69.8 °F 42.8 °F 38% 30.14 in 10.0 mi North 15.0 mph - N/A   Clear
10:55 AM 69.8 °F 42.8 °F 38% 30.13 in 10.0 mi NNW 12.7 mph 18.4 mph N/A   Clear
11:15 AM 71.6 °F 42.8 °F 35% 30.13 in 10.0 mi NNW 12.7 mph - N/A   Clear
11:35 AM 73.4 °F 42.8 °F 33% 30.12 in 10.0 mi North 9.2 mph 16.1 mph N/A   Clear
11:55 AM 75.2 °F 42.8 °F 31% 30.12 in 10.0 mi North 11.5 mph 17.3 mph N/A   Clear
12:15 PM 75.2 °F 42.8 °F 31% 30.12 in 10.0 mi NNE 15.0 mph 19.6 mph N/A   Clear
12:35 PM 77.0 °F 42.8 °F 29% 30.11 in 10.0 mi North 11.5 mph - N/A   Clear
12:55 PM 78.8 °F 42.8 °F 28% 30.10 in 10.0 mi North 13.8 mph 24.2 mph N/A   Clear
1:15 PM 78.8 °F 39.2 °F 24% 30.10 in 10.0 mi North 16.1 mph - N/A   Clear
1:35 PM 78.8 °F 37.4 °F 23% 30.08 in 10.0 mi North 18.4 mph 24.2 mph N/A   Clear
1:55 PM 80.6 °F 39.2 °F 23% 30.08 in 10.0 mi NNW 17.3 mph - N/A   Clear
2:15 PM 82.4 °F 39.2 °F 21% 30.07 in 10.0 mi NNW 11.5 mph 19.6 mph N/A   Clear
2:35 PM 82.4 °F 35.6 °F 19% 30.07 in 10.0 mi NNW 9.2 mph 18.4 mph N/A   Clear
2:55 PM 82.4 °F 35.6 °F 19% 30.06 in 10.0 mi NNW 13.8 mph 19.6 mph N/A   Clear
3:15 PM 84.2 °F 33.8 °F 16% 30.06 in 10.0 mi NNW 16.1 mph - N/A   Clear
3:35 PM 82.4 °F 33.8 °F 17% 30.05 in 10.0 mi North 11.5 mph - N/A   Clear
3:55 PM 84.2 °F 33.8 °F 16% 30.05 in 10.0 mi North 17.3 mph 20.7 mph N/A   Clear
4:15 PM 84.2 °F 33.8 °F 16% 30.05 in 10.0 mi NNW 12.7 mph 21.9 mph N/A   Clear
4:35 PM 84.2 °F 33.8 °F 16% 30.04 in 10.0 mi North 17.3 mph 23.0 mph N/A   Clear
4:55 PM 84.2 °F 33.8 °F 16% 30.03 in 10.0 mi NNW 13.8 mph 20.7 mph N/A   Clear
5:15 PM 84.2 °F 33.8 °F 16% 30.03 in 10.0 mi North 12.7 mph - N/A   Clear
5:35 PM 84.2 °F 33.8 °F 16% 30.03 in 10.0 mi North 18.4 mph 21.9 mph N/A   Clear
5:55 PM 84.2 °F 35.6 °F 18% 30.02 in 10.0 mi North 17.3 mph 25.3 mph N/A   Clear
6:15 PM 84.2 °F 35.6 °F 18% 30.03 in 10.0 mi North 12.7 mph 21.9 mph N/A   Clear
6:35 PM 82.4 °F 35.6 °F 19% 30.02 in 10.0 mi North 11.5 mph 23.0 mph N/A   Clear
6:55 PM 82.4 °F 35.6 °F 19% 30.03 in 10.0 mi North 12.7 mph 20.7 mph N/A   Clear
7:15 PM 82.4 °F 35.6 °F 19% 30.03 in 10.0 mi North 12.7 mph 19.6 mph N/A   Clear
7:35 PM 82.4 °F 35.6 °F 19% 30.03 in 10.0 mi North 11.5 mph - N/A   Clear
7:55 PM 80.6 °F 35.6 °F 20% 30.03 in 10.0 mi NNW 12.7 mph - N/A   Clear
8:15 PM 78.8 °F 35.6 °F 21% 30.03 in 10.0 mi NNW 11.5 mph 16.1 mph N/A   Clear
8:35 PM 75.2 °F 37.4 °F 25% 30.04 in 10.0 mi WNW 8.1 mph - N/A   Clear
8:55 PM 71.6 °F 48.2 °F 43% 30.04 in 10.0 mi West 10.4 mph - N/A   Clear
9:15 PM 69.8 °F 50.0 °F 49% 30.04 in 10.0 mi WNW 11.5 mph - N/A   Clear
9:35 PM 69.8 °F 50.0 °F 49% 30.05 in 10.0 mi WNW 10.4 mph - N/A   Clear
9:55 PM 68.0 °F 50.0 °F 52% 30.06 in 10.0 mi WNW 11.5 mph - N/A   Clear
10:15 PM 66.2 °F 50.0 °F 56% 30.07 in 10.0 mi WNW 10.4 mph - N/A   Clear
10:35 PM 64.4 °F 50.0 °F 59% 30.07 in 10.0 mi West 10.4 mph - N/A   Clear
10:55 PM 64.4 °F 50.0 °F 59% 30.07 in 10.0 mi West 10.4 mph - N/A   Clear
11:15 PM 62.6 °F 50.0 °F 63% 30.07 in 10.0 mi West 10.4 mph - N/A   Clear
11:35 PM 62.6 °F 50.0 °F 63% 30.07 in 10.0 mi West 6.9 mph - N/A   Clear
11:55 PM 60.8 °F 50.0 °F 68% 30.07 in 10.0 mi West 6.9 mph - N/A   Clear